Lexington Weather

Lexington, Massachusetts, USA

36°F
1/28/2020 5:27am 
  • Lexington Conditions: Overcast
  • Temperature: 36.3°F / 2.4°CWarmer 0.3°F than last hour.
  • Dew Point: 29.8°FIncreased 0.3°Fsince last hour.
  • Relative Humidity: 77
  • Wind: Wind from NNW NNW 2 mph, 10-min avg: 2 mph, gust: 4 mph
  • Barometer: 29.63 in Steady
  • Visibility: 10 miles
  • Rain Today: 0.00 in
  •   

Regional Weather Roundup
for Boston / Norton, MA

        
000
ASUS41 KBOX 272110
RWRBOX

REGIONAL WEATHER ROUNDUP
NATIONAL WEATHER SERVICE BOSTON/NORTON MA
400 PM EST MON JAN 27 2020

NOTE:  "FAIR" INDICATES FEW OR NO CLOUDS BELOW 12,000 FEET WITH NO 
SIGNIFICANT WEATHER AND/OR OBSTRUCTIONS TO VISIBILITY.

MAZALL-272200-
EASTERN MASSACHUSETTS
  
CITY           SKY/WX    TMP DP  RH WIND       PRES   REMARKS
BOSTON         MOCLDY    45  26  47 W16       29.56R                  
BEVERLY        CLOUDY    43  27  53 W9        29.54R                  
LAWRENCE       CLOUDY    42  26  53 W12       29.56R                  
BEDFORD        MOCLDY    43  25  49 W8        29.55R                  
BLUE HILL        N/A     39  26  59 W12       29.54R WCI  32          
NORWOOD        CLOUDY    46  27  47 W9        29.57R                  
MARSHFIELD     CLOUDY    45  27  49 W9G15     29.55R                  
PLYMOUTH       CLOUDY    43  28  55 W7        29.56R                  
TAUNTON        CLOUDY    43  26  51 W8G17     29.57R                  
NEW BEDFORD    MOCLDY    42  27  55 NW7       29.57R                  
$$

MAZALL-272200-
CAPE COD AND THE ISLANDS
  
CITY           SKY/WX    TMP DP  RH WIND       PRES   REMARKS
FALMOUTH       CLOUDY    43  27  52 W15       29.56R                  
HYANNIS        CLOUDY    45  27  49 W9        29.54S                  
CHATHAM        CLOUDY    42  33  70 VRB7      29.57R                  
PROVINCETOWN   MOCLDY    43  33  68 W9        29.56R                  
NANTUCKET      FAIR      42  33  70 W15       29.58R                  
MARTHAS VNYRD  FAIR      41  33  73 W9        29.57S                  
$$
 
MAZALL-272200-
CENTRAL AND WESTERN MASSACHUSETTS
  
CITY           SKY/WX    TMP DP  RH WIND       PRES   REMARKS
WORCESTER      CLOUDY    37  25  61 W10       29.55R WCI  30          
FITCHBURG      CLOUDY    40  26  57 W12       29.56R                  
ORANGE         CLOUDY    41  26  55 NW6       29.58R                  
SPRINGFIELD    CLOUDY    40  26  56 W12       29.59R                  
WESTFIELD      CLOUDY    40  27  59 W7        29.60R                  
NORTH ADAMS    NOT AVBL                                               
PITTSFIELD     CLOUDY    36  27  69 W9        29.58R WCI  29          
$$
 
RIZALL-272200-
RHODE ISLAND
  
CITY           SKY/WX    TMP DP  RH WIND       PRES   REMARKS
PROVIDENCE     CLOUDY    43  26  51 W10       29.59R                  
NEWPORT        CLOUDY    43  27  53 W9        29.58R                  
BLOCK ISLAND   FAIR      41  32  70 W16       29.60S                  
SMITHFIELD     CLOUDY    40  27  59 W10       29.58R                  
WESTERLY       CLOUDY    44  31  60 W7        29.61R                  
$$
 
CTZALL-272200-
CONNECTICUT
  
CITY           SKY/WX    TMP DP  RH WIND       PRES   REMARKS
BRADLEY INTL   CLOUDY    41  27  57 W9        29.61R                  
HARTFORD       CLOUDY    43  27  53 NW8       29.62R                  
BRIDGEPORT     CLOUDY    44  28  53 W8        29.63R                  
DANBURY        CLOUDY    40  27  59 VRB7      29.63S                  
GROTON         CLOUDY    42  32  67 W8        29.60S                  
NEW HAVEN      CLOUDY    45  28  51 W8        29.62R                  
CHESTER        CLOUDY    43  27  52 NW6G15    29.61                   
MERIDEN        CLOUDY    42  27  55 W9        29.62R                  
WILLIMANTIC    CLOUDY    41  27  57 NW10      29.62R                  
OXFORD         CLOUDY    39  28  64 VRB5      29.61R                  
$$

MEZ002-015-021-024-NHZ003-005-008-011-012-014-VTZ005-008-272200-
NORTHERN NEW ENGLAND
  
CITY           SKY/WX    TMP DP  RH WIND       PRES   REMARKS
PORTLAND ME    CLOUDY    43  27  53 NW12G22   29.51R                  
BANGOR ME      CLOUDY    40  30  67 W3        29.47R                  
CONCORD NH     CLOUDY    40  26  57 NW9       29.54R                  
MANCHESTER NH  CLOUDY    43  26  51 W8        29.54R                  
NASHUA NH      MOCLDY    42  27  55 NW12      29.56R                  
PORTSMOUTH NH  CLOUDY    43  25  49 W9        29.52R                  
JAFFREY NH     CLOUDY    38  25  59 NW6       29.54R                  
KEENE NH       CLOUDY    40  27  59 NW7       29.57R                  
BURLINGTON VT  FLURRIES  36  32  85 CALM      29.59R                  
MT. WASHINGTON SNOW      14  14 100 NW39G46     N/A  VSB 0   WCI  -9  
$$

NYZ052-076-272200-
EASTERN NEW YORK
  
CITY           SKY/WX    TMP DP  RH WIND       PRES   REMARKS
ALBANY         CLOUDY    40  28  62 NW14G22   29.65R                  
NEW YORK CITY  PTSUNNY   44  26  49 NW15G25   29.66R                  
$$
 
ANZALL-272200-
MARINE OBSERVATIONS
  
STATION/POSITION TIME  TEMP    WIND        PRES    VSBY  WAVE
                       AIR SEA DIR/SP/G                  HT/PER
                 (UTC) (F)     (DEG/KT/KT) (MB)    (MI)  (FT/S)
BOSTON BUOY      2050   43 43  280/ 14/ 16  999.8R         2/11
BUZZARDS BAY     2000   41     260/ 20/ 22 1001.8F
NANTUCKET SOUND  2040                        N/A           1/ 4
MASS BAY-STELLWA 2004   42 41  290/ 12/ 16  997.8R  1 7/8  4/11
ISLE OF SHOALS   2000   43     270/ 19/ 20  998.8R
S OF BLOCK IS    2100      44                N/A           6/ 7
$$

......................KEY.........................
  SKY/WX - SKY CONDITION/PRESENT WEATHER
  TMP    - TEMPERATURE IN FAHRENHEIT
  DWPT   - DEWPOINT IN FAHRENHEIT
  RH     - RELATIVE HUMIDITY IN PERCENT
  WIND   - DIRECTION AND SPEED IN MPH
  PRES   - MEAN SEA LEVEL PRESSURE IN INCHES OF HG
  WCI    - WIND CHILL INDEX
  VSB    - VISIBILITY IN MILES
  HX     - HEAT INDEX
  TC     - TEMPERATURE IN CELSIUS
  VRB    - VARIABLE WIND DIRECTION
  N/A    - NOT AVAILABLE
  
      

Other recent Regional Weather Roundups

Tue Jan 28, 5:10am

Tue Jan 28, 5:00am

Tue Jan 28, 4:10am

Tue Jan 28, 4:00am

Tue Jan 28, 3:10am

Tue Jan 28, 3:01am

Tue Jan 28, 2:10am

Tue Jan 28, 2:00am

Tue Jan 28, 1:10am

Tue Jan 28, 1:00am

Tue Jan 28, 12:10am

Tue Jan 28, 12:01am

Mon Jan 27, 11:10pm

Mon Jan 27, 11:00pm

Mon Jan 27, 10:10pm

Mon Jan 27, 10:00pm

Mon Jan 27, 9:10pm

Mon Jan 27, 9:00pm

Mon Jan 27, 8:10pm

Mon Jan 27, 8:01pm

Mon Jan 27, 7:10pm

Mon Jan 27, 7:00pm

Mon Jan 27, 6:10pm

Mon Jan 27, 6:00pm

Mon Jan 27, 5:10pm

Mon Jan 27, 5:00pm

Mon Jan 27, 4:00pm

Mon Jan 27, 3:10pm

Mon Jan 27, 3:00pm

Mon Jan 27, 2:10pm

Mon Jan 27, 2:00pm

Mon Jan 27, 1:10pm

Mon Jan 27, 1:00pm

Mon Jan 27, 12:10pm

Mon Jan 27, 12:00pm

Mon Jan 27, 11:10am

Mon Jan 27, 11:01am

Mon Jan 27, 10:10am

Mon Jan 27, 10:00am

Mon Jan 27, 9:10am

Mon Jan 27, 9:00am

Mon Jan 27, 8:10am

Mon Jan 27, 8:00am

Mon Jan 27, 7:10am

Mon Jan 27, 7:00am

Mon Jan 27, 6:10am

Mon Jan 27, 6:00am

Mon Jan 27, 5:10am

Mon Jan 27, 5:00am

Mon Jan 27, 4:10am

Mon Jan 27, 4:01am

Mon Jan 27, 3:10am

Mon Jan 27, 3:00am

Mon Jan 27, 2:10am

Mon Jan 27, 2:00am

Mon Jan 27, 1:10am

Mon Jan 27, 1:00am

Mon Jan 27, 12:10am

Mon Jan 27, 12:00am

Sun Jan 26, 11:10pm

Sun Jan 26, 11:00pm

Sun Jan 26, 10:10pm

Sun Jan 26, 10:00pm

Sun Jan 26, 9:10pm

Sun Jan 26, 9:01pm

Sun Jan 26, 8:10pm

Sun Jan 26, 8:00pm

Sun Jan 26, 7:10pm

Sun Jan 26, 7:00pm

Sun Jan 26, 6:10pm

Sun Jan 26, 6:01pm

Sun Jan 26, 5:10pm

Sun Jan 26, 5:01pm

Sun Jan 26, 4:10pm

Sun Jan 26, 4:00pm

Sun Jan 26, 3:10pm

Sun Jan 26, 3:01pm

Sun Jan 26, 2:10pm

Sun Jan 26, 2:01pm

Sun Jan 26, 1:10pm

Sun Jan 26, 1:00pm

Sun Jan 26, 12:10pm

Sun Jan 26, 12:00pm

Sun Jan 26, 11:10am

Sun Jan 26, 11:01am

Sun Jan 26, 10:10am

Sun Jan 26, 10:01am

Sun Jan 26, 9:10am

Sun Jan 26, 9:00am

Sun Jan 26, 8:10am

Sun Jan 26, 8:00am

Sun Jan 26, 7:10am

Sun Jan 26, 7:00am

Sun Jan 26, 6:10am

Sun Jan 26, 6:00am

Sun Jan 26, 5:10am

Sun Jan 26, 5:00am

Sun Jan 26, 4:10am

Sun Jan 26, 4:01am

Sun Jan 26, 3:10am

Sun Jan 26, 3:01am

Sun Jan 26, 2:10am

Sun Jan 26, 2:00am

Sun Jan 26, 1:10am

Sun Jan 26, 1:00am

Sun Jan 26, 12:10am

Sun Jan 26, 12:00am

Sat Jan 25, 11:10pm

Sat Jan 25, 11:00pm

Sat Jan 25, 10:10pm

Sat Jan 25, 10:01pm

Sat Jan 25, 9:10pm

Sat Jan 25, 9:01pm

Sat Jan 25, 8:10pm

Sat Jan 25, 8:01pm

Sat Jan 25, 7:10pm

Sat Jan 25, 7:01pm

Sat Jan 25, 6:10pm

Sat Jan 25, 6:01pm

Sat Jan 25, 5:10pm

Sat Jan 25, 5:01pm

Sat Jan 25, 4:10pm

Sat Jan 25, 4:00pm

Sat Jan 25, 3:10pm

Sat Jan 25, 3:01pm

Sat Jan 25, 2:10pm

Sat Jan 25, 2:00pm

Sat Jan 25, 1:10pm

Sat Jan 25, 1:00pm

Sat Jan 25, 12:10pm

Sat Jan 25, 12:00pm

Sat Jan 25, 11:10am

Sat Jan 25, 11:00am

Sat Jan 25, 10:10am

Sat Jan 25, 10:00am

Sat Jan 25, 9:10am

Sat Jan 25, 9:00am

Sat Jan 25, 8:10am

Sat Jan 25, 8:01am

Sat Jan 25, 7:10am

Sat Jan 25, 7:00am

Sat Jan 25, 6:10am

Sat Jan 25, 6:00am

Meta data:

ID: 73e05b33-8d68-4594-b6cd-108658720069
Link: https://api.weather.gov/products/73e05b33-8d68-4594-b6cd-108658720069